{"data":{"norad_id":56720,"epoch":"2026-05-25T00:25:51.191040Z","epoch_age_seconds":83880,"freshness":"FRESH","line1":"1 56720U 23068L   26145.01795360  .00000109  00000+0  25634-3 0  9990","line2":"2 56720  87.8999 263.7992 0000653  73.4736 286.6466 13.15547043146208","mean_motion":13.15547043,"eccentricity":6.53e-5,"inclination_deg":87.8999,"raan_deg":263.7992,"arg_perigee_deg":73.4736,"mean_anomaly_deg":286.6466,"bstar":0.00025634,"rev_number":14620,"period_min":109.46016774255,"perigee_km":1201.2815877851,"apogee_km":1202.2715244955,"semimajor_km":7579.9135561403,"source":"CELESTRAK","updated_at":"2026-05-25T13:38:22.745386Z"}}